Voltar ao catálogo

STARLINK-34717

AtivoComunicaçõesSSO
NORAD 65060·PAYLOAD·🇺🇸 United States

Lançado Jul 31, 2025 de Vandenberg Space Force Base

Loading…

Próximas Passagens (próximas 24 horas)

TLE

AtualizadoSource: CelesTrak SupGP

Época: Sep 15, 2026, 02:37 UTC

1 65060C 25165E   26258.10951389  .02136900  00000+0  86132-1 0  2584
2 65060  97.2842 329.4374 0001603  79.2104 193.9988 15.23829126    13

Acompanhe STARLINK-34717 em tempo real com AllMySat

Download on the App Store